DW4127 Weather Reports


time (UTC)temp
C
wind
direction
speed
KPH
gust
KPH
rain 1hr
cm
rain 24hr
cm
rain mn
cm
humidity
%
barometer
mb
20260507063548 13 0.0 3.2 0.00 0.18 0.00 83 1016.1
20260507062608 13 0.0 1.6 0.00 0.18 0.00 82 1016.1
20260507061548 13 0.0 1.6 0.00 0.18 0.00 82 1016.0
20260507060548 13 0.0 3.2 0.00 0.18 0.00 82 1016.0
20260507055548 13 68 1.6 3.2 0.00 0.18 0.00 81 1016.0
20260507054548 13 45 1.6 4.8 0.00 0.18 0.00 81 1016.1
20260507053548 14 45 1.6 4.8 0.00 0.18 0.00 81 1016.0
20260507052548 14 0.0 3.2 0.00 0.18 0.00 80 1016.1
20260507051548 14 0.0 3.2 0.00 0.18 0.00 79 1016.2
20260507050548 14 0.0 3.2 0.00 0.18 0.00 79 1016.2
20260507045549 15 90 1.6 4.8 0.00 0.18 0.18 79 1016.3
20260507044549 15 0.0 3.2 0.00 0.18 0.18 78 1016.2
20260507043549 15 0.0 3.2 0.00 0.18 0.18 79 1016.3
20260507042549 15 0.0 3.2 0.00 0.18 0.18 79 1016.4
20260507041549 15 338 1.6 4.8 0.00 0.18 0.18 78 1016.8
20260507040549 15 0 4.8 16.1 0.00 0.18 0.18 78 1016.8
20260507035549 15 23 3.2 12.9 0.00 0.18 0.18 78 1016.7
20260507034549 15 23 3.2 8.0 0.00 0.18 0.18 79 1016.6
20260507033609 15 0 4.8 12.9 0.00 0.18 0.18 78 1016.7
20260507032549 15 338 3.2 12.9 0.00 0.18 0.18 79 1016.4
20260507031549 15 0 4.8 11.3 0.00 0.18 0.18 79 1016.4
20260507030549 15 315 3.2 9.7 0.00 0.18 0.18 79 1016.2
20260507025609 15 0 3.2 12.9 0.00 0.18 0.18 79 1015.9
20260507024549 15 338 3.2 12.9 0.00 0.18 0.18 79 1015.8
20260507023549 15 0 1.6 8.0 0.00 0.18 0.18 79 1015.7
20260507022549 15 338 1.6 6.4 0.00 0.18 0.18 79 1015.4
20260507021549 15 68 1.6 4.8 0.00 0.18 0.18 79 1015.3
20260507020609 15 0 1.6 6.4 0.00 0.18 0.18 79 1015.1
20260507015549 15 23 3.2 11.3 0.00 0.18 0.18 79 1014.9
20260507014549 15 0 1.6 8.0 0.00 0.18 0.18 80 1014.7
20260507013549 15 0 1.6 6.4 0.00 0.18 0.18 80 1014.4
20260507012549 15 0 3.2 6.4 0.00 0.18 0.18 80 1014.3
20260507011549 15 0 3.2 6.4 0.00 0.18 0.18 79 1014.1
20260507010549 15 338 1.6 4.8 0.00 0.18 0.18 80 1013.9
20260507005549 15 0 3.2 8.0 0.00 0.18 0.18 80 1013.9
20260507004549 15 0 1.6 8.0 0.00 0.18 0.18 80 1013.9
20260507003549 15 0 1.6 8.0 0.00 0.18 0.18 80 1013.6
20260507002549 15 0 1.6 6.4 0.00 0.18 0.18 79 1013.6
20260507001549 15 338 1.6 6.4 0.00 0.18 0.18 79 1013.5
20260507000549 15 23 1.6 4.8 0.00 0.18 0.18 79 1013.3
20260506235549 16 0 3.2 9.7 0.00 0.18 0.18 78 1013.3
20260506234549 16 23 1.6 3.2 0.00 0.18 0.18 78 1013.4
20260506233609 16 45 3.2 9.7 0.00 0.18 0.18 78 1013.1
20260506232549 16 0 1.6 4.8 0.00 0.18 0.18 78 1013.1
20260506231549 16 0 1.6 8.0 0.00 0.18 0.18 77 1012.9
20260506230549 16 0 6.4 14.5 0.00 0.18 0.18 76 1012.8
20260506225549 16 0 4.8 14.5 0.00 0.18 0.18 75 1012.7
20260506224549 16 0 3.2 8.0 0.00 0.18 0.18 76 1012.7
20260506223549 16 0 3.2 6.4 0.00 0.18 0.18 75 1012.8
20260506222549 16 0 1.6 8.0 0.00 0.18 0.18 75 1012.7
20260506221549 16 0 4.8 11.3 0.00 0.18 0.18 75 1012.8
20260506220549 16 23 3.2 8.0 0.00 0.18 0.18 75 1012.2
20260506215609 16 0 3.2 11.3 0.00 0.18 0.18 74 1012.3
20260506214549 16 338 3.2 16.1 0.00 0.18 0.18 74 1012.3
20260506213549 16 315 3.2 9.7 0.00 0.18 0.18 74 1012.4
20260506212549 16 0 3.2 12.9 0.00 0.18 0.18 74 1012.4
20260506211549 17 0 1.6 8.0 0.00 0.18 0.18 74 1012.5
20260506210549 17 0 4.8 12.9 0.00 0.18 0.18 74 1012.7
20260506205549 17 0 3.2 8.0 0.00 0.18 0.18 74 1012.6
20260506204549 16 23 4.8 12.9 0.00 0.18 0.18 75 1012.8
20260506203549 16 0 8.0 17.7 0.00 0.18 0.18 74 1013.0
20260506202609 17 23 3.2 12.9 0.00 0.18 0.18 75 1013.0
20260506201549 16 338 4.8 12.9 0.00 0.18 0.18 77 1013.1
20260506200609 16 338 3.2 12.9 0.00 0.18 0.18 77 1013.4
20260506195549 15 0 8.0 16.1 0.00 0.18 0.18 78 1013.2
20260506194609 15 338 4.8 11.3 0.00 0.18 0.18 80 1013.2
20260506193549 14 0 4.8 14.5 0.00 0.18 0.18 81 1013.4
20260506192729 14 0 4.8 9.7 0.00 0.18 0.18 81 1013.6
20260506191549 14 23 3.2 8.0 0.00 0.18 0.18 82 1013.7
20260506190549 13 0 4.8 8.0 0.00 0.18 0.18 82 1013.7
20260506185608 13 0 6.4 12.9 0.00 0.18 0.18 82 1013.7
20260506184548 14 338 3.2 8.0 0.00 0.18 0.18 82 1013.6
20260506183549 15 338 1.6 4.8 0.00 0.18 0.18 84 1013.1
20260506182548 13 0 4.8 12.9 0.00 0.18 0.18 84 1012.3
20260506181649 13 23 3.2 16.1 0.00 0.18 0.18 85 1012.1
20260506180548 13 0 8.0 24.1 0.00 0.18 0.18 85 1012.0
20260506175548 13 0 4.8 19.3 0.00 0.18 0.18 86 1012.1
20260506174548 13 0 6.4 19.3 0.00 0.18 0.18 86 1012.6
20260506173548 12 0 4.8 14.5 0.00 0.18 0.18 86 1012.8
20260506172548 13 0 3.2 8.0 0.00 0.18 0.18 87 1013.2
20260506171548 13 0 3.2 11.3 0.00 0.18 0.18 86 1013.1
20260506170549 12 0 6.4 17.7 0.00 0.18 0.18 85 1013.3
20260506165608 12 0 8.0 22.5 0.00 0.18 0.18 85 1012.8
20260506164548 12 0 6.4 16.1 0.03 0.18 0.18 85 1013.3
20260506163549 13 23 4.8 16.1 0.05 0.18 0.18 85 1013.3
20260506162549 13 0 8.0 17.7 0.18 0.18 0.18 85 1013.5
20260506161548 13 0 1.6 8.0 0.18 0.18 0.18 87 1013.7
20260506160549 13 45 1.6 6.4 0.18 0.18 0.18 86 1013.3
20260506155609 12 23 3.2 12.9 0.18 0.18 0.18 85 1013.1
20260506154549 12 0 4.8 11.3 0.15 0.15 0.15 85 1012.1
20260506153548 12 338 6.4 14.5 0.13 0.13 0.13 81 1014.6
20260506152548 12 23 3.2 8.0 0.00 0.00 0.00 81 1014.9
20260506151549 12 0 1.6 4.8 0.00 0.00 0.00 81 1014.6
20260506150549 12 338 3.2 8.0 0.00 0.00 0.00 80 1014.1
20260506145549 13 0 4.8 12.9 0.00 0.00 0.00 78 1013.2
20260506144549 12 0 6.4 17.7 0.00 0.00 0.00 78 1013.2
20260506143709 13 338 3.2 14.5 0.00 0.00 0.00 79 1013.6
20260506142548 12 0 6.4 14.5 0.00 0.00 0.00 79 1013.3
20260506141548 12 0 6.4 17.7 0.00 0.00 0.00 80 1013.1
20260506140548 12 338 8.0 20.9 0.00 0.00 0.00 80 1013.1
20260506135548 12 0 6.4 16.1 0.00 0.00 0.00 81 1012.5
20260506134608 12 0 6.4 14.5 0.00 0.00 0.00 81 1012.5
20260506133548 12 0 6.4 16.1 0.00 0.00 0.00 80 1012.6
20260506132548 12 0 4.8 12.9 0.00 0.00 0.00 80 1012.4
20260506131548 12 0 9.7 20.9 0.00 0.00 0.00 80 1012.1
20260506130548 12 0 8.0 16.1 0.00 0.00 0.00 80 1012.3
20260506125548 12 0 8.0 19.3 0.00 0.00 0.00 80 1012.0
20260506124608 12 0 8.0 17.7 0.00 0.00 0.00 79 1012.0
20260506123548 12 0 8.0 20.9 0.00 0.00 0.00 79 1012.0
20260506122548 12 0 9.7 19.3 0.00 0.00 0.00 78 1011.9
20260506121608 13 0 8.0 17.7 0.00 0.00 0.00 77 1011.6
20260506120548 13 0 6.4 17.7 0.00 0.00 0.00 76 1011.7
20260506115548 13 0 9.7 22.5 0.00 0.00 0.00 76 1011.6
20260506114548 13 0 4.8 12.9 0.00 0.00 0.00 76 1011.4
20260506113548 13 0 4.8 16.1 0.00 0.00 0.00 75 1011.0
20260506112548 13 0 6.4 16.1 0.00 0.00 0.00 75 1011.0
20260506111548 13 0 4.8 16.1 0.00 0.00 0.00 75 1011.0
20260506110548 13 0 9.7 19.3 0.00 0.00 0.00 74 1010.7
20260506105608 13 0 4.8 17.7 0.00 0.00 0.00 73 1010.6
20260506104548 14 0 6.4 14.5 0.00 0.00 0.00 73 1010.3
20260506103548 14 0 9.7 20.9 0.00 0.00 0.00 73 1010.1
20260506102548 14 0 4.8 16.1 0.00 0.00 0.00 73 1010.0
20260506101548 14 0 8.0 17.7 0.00 0.00 0.00 73 1009.7
20260506100608 15 0 4.8 12.9 0.00 0.00 0.00 73 1009.6
20260506095548 15 0 4.8 17.7 0.00 0.00 0.00 73 1009.6
20260506094548 15 23 8.0 17.7 0.00 0.00 0.00 73 1009.5
20260506093548 15 0 6.4 14.5 0.00 0.00 0.00 73 1009.5
20260506092548 15 0 6.4 14.5 0.00 0.00 0.00 73 1009.5
20260506091548 15 0 3.2 8.0 0.00 0.00 0.00 73 1009.3
20260506090548 15 0 3.2 9.7 0.00 0.00 0.00 73 1009.3
20260506085548 15 0 4.8 11.3 0.00 0.00 0.00 73 1009.2
20260506084548 15 0 3.2 11.3 0.00 0.00 0.00 73 1008.9
20260506083548 15 338 4.8 12.9 0.00 0.00 0.00 74 1009.0
20260506082548 15 0 4.8 9.7 0.00 0.00 0.00 74 1008.8
20260506081548 15 0.0 4.8 0.00 0.00 0.00 75 1008.5
20260506080548 15 338 4.8 9.7 0.00 0.00 0.00 74 1008.7
20260506072548 16 0 4.8 9.7 0.00 0.00 0.00 75 1008.7
20260506071548 16 338 3.2 14.5 0.00 0.00 0.00 74 1008.7
20260506070548 16 0 4.8 12.9 0.00 0.00 0.00 75 1008.9